FW5246 Weather Reports


Display with metric or nautical units.
time (UTC)temp
F
wind
direction
speed
MPH
gust
MPH
rain 1hr
in
rain 24hr
in
rain mn
in
humidity
%
barometer
mb
20260509200052 52 360 0.0 3.0 0.02 0.26 0.00 96 1009.9
20260509194554 51 360 0.0 4.0 0.02 0.26 0.00 97 1010.1
20260509193045 51 360 2.0 6.0 0.02 0.26 0.26 97 1010.1
20260509191552 51 360 2.0 5.0 0.02 0.25 0.25 96 1010.3
20260509190046 51 360 1.0 6.0 0.02 0.24 0.24 96 1010.5
20260509184541 51 360 3.0 9.0 0.03 0.24 0.24 97 1010.4
20260509183041 51 360 1.0 6.0 0.02 0.24 0.23 97 1010.5
20260509181540 51 360 2.0 10.0 0.02 0.24 0.23 96 1010.3
20260509180051 51 360 2.0 11.0 0.02 0.23 0.22 96 1010.2
20260509174540 51 360 3.0 8.0 0.02 0.22 0.21 96 1010.3
20260509173051 51 360 1.0 5.0 0.03 0.26 0.21 97 1010.5
20260509171540 51 360 2.0 6.0 0.04 0.26 0.21 97 1010.4
20260509170006 51 360 1.0 6.0 0.04 0.25 0.20 97 1010.3
20260509164506 51 360 1.0 6.0 0.03 0.24 0.19 97 1010.4
20260509163001 51 360 1.0 6.0 0.02 0.24 0.18 97 1010.7
20260509161606 51 360 1.0 5.0 0.02 0.23 0.17 97 1010.7
20260509161501 51 360 1.0 5.0 0.02 0.23 0.17 97 1010.8
20260509154557 51 360 1.0 3.0 0.02 0.22 0.16 97 1011.1
20260509153103 51 360 0.0 3.0 0.02 0.22 0.16 97 1011.1
20260509151555 50 360 0.0 3.0 0.01 0.21 0.15 98 1011.4
20260509150053 50 360 2.0 5.0 0.01 0.20 0.14 98 1011.5
20260509144554 50 360 1.0 4.0 0.01 0.20 0.14 98 1011.5
20260509143057 50 360 0.0 3.0 0.01 0.20 0.14 98 1011.6
20260509141533 49 360 0.0 0.0 0.01 0.20 0.14 98 1011.6
20260509140024 49 360 0.0 2.0 0.01 0.19 0.13 98 1011.6
20260509134518 49 360 0.0 2.0 0.01 0.19 0.13 98 1011.6
20260509133022 49 360 0.0 3.0 0.02 0.19 0.13 98 1011.4
20260509131521 49 360 0.0 0.0 0.02 0.19 0.13 98 1011.2
20260509130017 49 360 0.0 0.0 0.01 0.18 0.12 98 1011.3
20260509124551 49 360 0.0 0.0 0.01 0.18 0.12 98 1011.4
20260509123046 49 360 0.0 0.0 0.00 0.17 0.11 98 1011.5
20260509121543 48 360 0.0 0.0 0.00 0.17 0.11 98 1011.5
20260509120042 48 360 0.0 0.0 0.00 0.17 0.11 99 1011.3
20260509114542 48 360 0.0 0.0 0.00 0.17 0.11 98 1011.6
20260509113040 47 360 0.0 0.0 0.00 0.17 0.11 98 1011.6
20260509111539 47 360 0.0 0.0 0.00 0.17 0.11 98 1011.8
20260509110038 46 360 0.0 0.0 0.01 0.17 0.11 98 1011.9
20260509104537 46 360 0.0 0.0 0.01 0.17 0.11 98 1011.8
20260509103043 46 360 0.0 0.0 0.02 0.17 0.11 98 1011.7
20260509101534 46 360 0.0 0.0 0.02 0.17 0.11 98 1011.7
20260509100033 46 360 0.0 0.0 0.01 0.16 0.10 97 1012.2
20260509094534 46 360 0.0 0.0 0.01 0.16 0.10 98 1012.1
20260509093032 46 360 0.0 0.0 0.00 0.15 0.09 98 1012.0
20260509091530 46 360 0.0 0.0 0.00 0.15 0.09 97 1012.0
20260509090037 46 360 0.0 0.0 0.00 0.15 0.09 97 1012.2
20260509084530 46 360 0.0 1.0 0.00 0.15 0.09 97 1012.3
20260509083028 46 360 0.0 1.0 0.01 0.15 0.09 97 1012.5
20260509081558 46 360 1.0 3.0 0.02 0.15 0.09 97 1012.7
20260509080059 46 360 0.0 0.0 0.04 0.15 0.09 97 1012.5
20260509074611 46 360 0.0 0.0 0.05 0.15 0.09 97 1012.4
20260509073106 46 360 0.0 0.0 0.06 0.14 0.08 97 1012.7
20260509071558 46 360 0.0 0.0 0.06 0.13 0.07 97 1013.0
20260509070057 46 360 0.0 0.0 0.04 0.11 0.05 97 1012.9
20260509064551 46 360 0.0 0.0 0.03 0.10 0.04 97 1013.0
20260509063100 46 360 0.0 2.0 0.01 0.08 0.02 97 1013.3
20260509061550 46 360 0.0 0.0 0.00 0.07 0.01 96 1013.6
20260509060107 46 360 0.0 2.0 0.00 0.07 0.01 97 1013.5
20260509054544 46 360 0.0 0.0 0.00 0.07 0.01 96 1013.5
20260509053054 45 360 0.0 0.0 0.00 0.09 0.01 97 1012.9
20260509051547 45 360 0.0 1.0 0.00 0.09 0.01 96 1012.7
20260509050043 45 360 0.0 2.0 0.00 0.09 0.01 96 1013.1
20260509044542 45 360 0.0 1.0 0.00 0.09 0.01 96 1013.1
20260509043050 45 360 0.0 0.0 0.00 0.19 0.01 97 1013.1
20260509041538 44 360 0.0 0.0 0.00 0.19 0.01 96 1013.2
20260509040052 43 360 0.0 0.0 0.00 0.19 0.01 96 1013.5
20260509034537 43 360 0.0 0.0 0.00 0.19 0.01 95 1013.4
20260509033051 43 360 0.0 0.0 0.00 0.23 0.01 94 1013.6
20260509031504 43 360 0.0 0.0 0.00 0.23 0.01 94 1013.5
20260509030003 44 360 0.0 0.0 0.00 0.23 0.01 94 1013.4
20260509024607 44 360 0.0 0.0 0.00 0.23 0.01 93 1013.4
20260509023057 45 360 0.0 0.0 0.00 0.23 0.01 93 1013.3
20260509021555 45 360 0.0 0.0 0.00 0.23 0.01 92 1013.4
20260509020105 46 360 0.0 0.0 0.00 0.23 0.01 92 1013.6
20260509014549 47 360 0.0 0.0 0.00 0.23 0.01 92 1013.1
20260509013046 47 360 0.0 0.0 0.00 0.23 0.01 92 1013.3
20260509011549 47 360 0.0 0.0 0.00 0.23 0.01 92 1013.0
20260509010042 48 360 0.0 0.0 0.00 0.23 0.01 92 1012.9
20260509004541 48 360 0.0 0.0 0.00 0.23 0.01 92 1012.4
20260509003038 48 360 0.0 0.0 0.00 0.23 0.01 91 1012.2
20260509001537 48 360 0.0 0.0 0.00 0.23 0.01 90 1012.2
20260509000036 48 360 0.0 0.0 0.00 0.23 0.01 90 1012.5
20260508234535 48 360 0.0 0.0 0.00 0.23 0.01 89 1012.3
20260508233036 48 360 0.0 0.0 0.00 0.23 0.01 88 1012.2
20260508231528 49 360 0.0 0.0 0.00 0.23 0.01 87 1011.8
20260508230026 50 360 0.0 3.0 0.00 0.23 0.01 84 1012.0
20260508224525 50 360 0.0 4.0 0.00 0.23 0.01 83 1012.1
20260508223055 50 360 0.0 3.0 0.01 0.23 0.01 83 1012.0
20260508221557 50 360 1.0 4.0 0.01 0.23 0.01 84 1012.1
20260508220023 50 360 0.0 4.0 0.01 0.23 0.01 85 1012.2
20260508214526 50 360 0.0 5.0 0.01 0.23 0.01 87 1012.1
20260508213054 50 360 1.0 4.0 0.00 0.22 0.00 85 1012.3
20260508211547 51 360 0.0 4.0 0.00 0.22 0.00 82 1012.5
20260508210040 53 360 1.0 5.0 0.00 0.22 0.00 76 1012.2
20260508204539 54 360 0.0 3.0 0.00 0.22 0.00 68 1012.1
20260508203037 55 360 0.0 4.0 0.00 0.22 0.00 64 1012.0
20260508201532 56 360 0.0 8.0 0.00 0.22 0.00 67 1012.2